Regional Weather Roundup
Issued by NWS Raleigh/Durham, NC

Home | Current Version | Previous Version | Text Only | Print | Product List | Glossary On
Versions: 1 2 3 4 5 6 7 8 9 10 11 12 13 14 15 16 17 18 19 20 21 22 23 24 25 26 27
000
ASUS42 KRAH 290510
RWRRAH
NORTH CAROLINA WEATHER ROUNDUP
NATIONAL WEATHER SERVICE RALEIGH NC
100 AM EDT SAT APR 29 2017

NOTE: "FAIR" INDICATES FEW OR NO CLOUDS BELOW 12,000 FEET WITH NO
SIGNIFICANT WEATHER AND/OR OBSTRUCTIONS TO VISIBILITY.

NCZ001-053-055-056-065-067-290600-
WESTERN NORTH CAROLINA

CITY           SKY/WX    TMP DP  RH WIND       PRES   REMARKS
ASHEVILLE      NOT AVBL
JEFFERSON      CLEAR     66  59  78 S3        30.17
MORGANTON      CLEAR     61  61 100 CALM      30.15F FOG
HICKORY        CLEAR     67  65  93 CALM      30.10F
RUTHERFORDTON  CLEAR     65  65 100 CALM      30.12F
MOUNT AIRY     CLEAR     68  65  90 CALM      30.12S
BOONE          NOT AVBL
$$

NCZ021-022-025-041-071-084-088-290600-
CENTRAL NORTH CAROLINA

CITY           SKY/WX    TMP DP  RH WIND       PRES   REMARKS
CHARLOTTE      NOT AVBL
GREENSBORO     PTCLDY    73  69  87 SW12      30.09F
WINSTON-SALEM  CLEAR     72  64  76 S3        30.11S
RALEIGH-DURHAM PTCLDY    77  72  84 S12       30.11R
FORT BRAGG     MOCLDY    76  73  87 S8        30.12R
FAYETTEVILLE   CLOUDY    77  74  90 S12       30.13R
BURLINGTON     CLEAR     72  68  87 S3        30.09F
LAURINBURG     PTCLDY    74  72  93 S8        30.14R
$$

NCZ011-015-027-028-043-044-047-080-103-290600-
NORTHEASTERN NORTH CAROLINA

CITY           SKY/WX    TMP DP  RH WIND       PRES   REMARKS
ROCKY MT-WILSO CLOUDY    76  74  93 S12G21    30.12S
GREENVILLE     CLEAR     73  73 100 SW7       30.15R
WASHINGTON     CLEAR     74  72  92 SW9       30.15R
ELIZABETH CITY CLOUDY    75  74  96 S16       30.12S
MANTEO         MOCLDY    73  72  95 SW14      30.16R
CAPE HATTERAS  MOCLDY    74  72  93 S9        30.18S FOG
$$

NCZ078-087-090-091-093-098-101-290600-
SOUTHEASTERN NORTH CAROLINA

CITY           SKY/WX    TMP DP  RH WIND       PRES   REMARKS
LUMBERTON      CLOUDY    75  73  93 S6        30.14R
GOLDSBORO      CLOUDY    76  76 100 S12       30.13R
KINSTON        CLOUDY    76  73  90 S9        30.15S
KENANSVILLE    CLOUDY    75  72  88 SW3       30.15S
NEW BERN       MOCLDY    75  73  93 SW8       30.17R
CHERRY POINT   CLOUDY    76  72  87 S13G21    30.17S
BEAUFORT       CLEAR     73  73 100 S12       30.18R
JACKSONVILLE   CLOUDY    76  74  93 SW7       30.16R
WILMINGTON     CLOUDY    76  74  93 S8        30.17R
$$





USA.gov is the U.S. government's official web portal to all federal, state and local government web resources and services.